Location: Krasnoyarskiy Pitomnik
(51.1333°N, 71.6167°E)
Time: 10:03:11
(UTC+00:00)

Lacrosse 4 Rocket - Pass Details

Date: 22 October 2021
Orbit: 537 x 619 km, 68.0° (Epoch: 07 December)

Event Time Altitude Azimuth Distance (km) Brightness Sun altitude
Rises 14:06:18 0° 322° (NW) 2,802 5.6 -19.4°
Reaches altitude 10° 14:08:31 10° 319° (NW) 1,913 4.7 -19.8°
Maximum altitude 14:12:46 61° 239° (WSW) 680 1.9 -20.4°
Enters shadow 14:15:10 25° 167° (SSE) 1,230 2.9 -20.8°
